Location: Diguira
(13.1838°N, 4.9109°W)
Time: 16:37:39
(UTC+00:00)

Intelsat 5-3 Rocket - Pass Details

Date: 18 September 2020
Orbit: 281 x 6111 km, 23.6° (Epoch: 24 October)

Event Time Altitude Azimuth Distance (km) Brightness Sun altitude
Rises 20:07:24 0° 288° (WNW) 2,936 7.3 -27.3°
Reaches altitude 10° 20:09:01 10° 287° (WNW) 2,317 6.4 -27.7°
Maximum altitude 20:14:24 80° 200° (SSW) 1,342 4.1 -29.0°
Enters shadow 20:17:07 52° 124° (SE) 1,958 4.6 -29.6°
